Flag for Germany Weather past 2 weeks in Mülheim / Ruhr, North Rhine-Westphalia, Germany

Now
61 °F

Scattered showers. Scattered clouds.


Feels Like: 61 °F
Forecast: 53 / 66 °F
Wind: 12 mph from Southwest

Location: Duesseldorf

Current Time: Jul 29, 2015 at 4:03:09 PM

Latest Report: Jul 29, 2015 at 3:20 PM


Visibility: N/A

Pressure: 29.80 "Hg

Humidity: 63%

Dew point: 48 °F

Location of Mülheim / RuhrLocation

Historic Weather in Mülheim / Ruhr — Graph

°F

Mülheim / Ruhr temperature yesterday

Maximum temperature yesterday: 64 °F (at 3:50 PM)
Minimum temperature yesterday: 55 °F (at 3:20 AM)
Average temperature yesterday: 60 °F

Past Weeks' High & Low Weather Summary

 TemperatureHumidityPressure
High91 °F (Jul 17, 4:50 PM)100% (Jul 16, 4:50 AM)30.12 "Hg (Jul 16, 4:50 AM)
Low48 °F (Jul 26, 5:50 AM)26% (Jul 17, 4:50 PM)29.50 "Hg (Jul 25, 6:50 AM)
Average67 °F71%29.89 "Hg
* Reported Jul 14 2:20 PM — Jul 29 2:50 PM, Mülheim / Ruhr, Weather by CustomWeather, © 2015

Note: Actual official high and low records may vary slightly from our data, if they occured in-between our weather recording intervals... More about our weather records

Advertising

Mülheim / Ruhr weather history for previous 24 hours

 ConditionsComfort  
Time TempWeatherWind HumidityBarometerVisibility
2:50 PM
Wed, Jul 29
57 °FScattered showers. Scattered clouds.15 mph72%29.80 "HgN/A
2:20 PM57 °FSprinkles. Partly sunny.16 mph72%29.80 "HgN/A
1:50 PM61 °FScattered showers. Scattered clouds.16 mph63%29.77 "HgN/A
1:20 PM59 °FScattered clouds.12 mph77%29.77 "HgN/A
12:50 PM54 °FSprinkles. Scattered clouds.14 mph82%29.77 "HgN/A
12:20 PM64 °FScattered clouds.16 mph49%29.74 "HgN/A
11:50 AM61 °FScattered clouds.20 mph59%29.74 "HgN/A
11:20 AM61 °FScattered clouds.14 mph63%29.74 "HgN/A
10:50 AM61 °FScattered clouds.13 mph68%29.74 "HgN/A
10:20 AM61 °FScattered showers. Scattered clouds.15 mph72%29.77 "HgN/A
9:50 AM59 °FSprinkles. Partly sunny.15 mph72%29.77 "HgN/A
9:20 AM59 °FPartly sunny.13 mph77%29.77 "HgN/A
8:50 AM57 °FScattered clouds.14 mph77%29.77 "HgN/A
8:20 AM57 °FPartly sunny.13 mph82%29.77 "HgN/A
7:50 AM55 °FPartly sunny.12 mph82%29.77 "HgN/A
7:20 AM55 °FPartly sunny.12 mph82%29.77 "HgN/A
6:50 AM55 °FPassing clouds.14 mph82%29.77 "HgN/A
6:20 AM55 °FPassing clouds.14 mph82%29.77 "HgN/A
5:50 AM55 °FPassing clouds.13 mph82%29.77 "HgN/A
5:20 AM55 °FPassing clouds.14 mph77%29.77 "HgN/A
4:50 AM57 °FPassing clouds.16 mph77%29.77 "HgN/A
4:20 AM55 °FPassing clouds.17 mph77%29.77 "HgN/A
3:50 AM55 °FClear.18 mph77%29.77 "Hg10 mi
3:20 AM55 °FClear.15 mph77%29.77 "Hg10 mi
2:50 AM55 °FClear.13 mph72%29.77 "Hg10 mi
2:20 AM55 °FClear.14 mph72%29.77 "Hg10 mi
1:50 AM55 °FClear.15 mph72%29.77 "Hg10 mi
1:20 AM55 °FClear.13 mph67%29.77 "Hg10 mi
12:50 AM55 °FClear.13 mph67%29.77 "Hg10 mi
11:20 PM
Tue, Jul 28
57 °FClear.13 mph67%29.77 "Hg10 mi
10:50 PM57 °FClear.14 mph67%29.77 "Hg10 mi
10:20 PM59 °FScattered clouds.10 mph59%29.77 "HgN/A
9:50 PM61 °FScattered clouds.12 mph55%29.77 "HgN/A
9:20 PM61 °FBroken clouds.13 mph55%29.77 "HgN/A
8:50 PM63 °FBroken clouds.13 mph56%29.74 "HgN/A
8:20 PM64 °FBroken clouds.17 mph52%29.74 "HgN/A
7:50 PM64 °FPartly sunny.17 mph56%29.74 "HgN/A
7:20 PM64 °FBroken clouds.13 mph56%29.74 "HgN/A
6:50 PM64 °FBroken clouds.17 mph56%29.74 "HgN/A
6:20 PM64 °FPartly sunny.15 mph60%29.74 "HgN/A
5:50 PM63 °FPartly sunny.15 mph64%29.74 "HgN/A
5:20 PM63 °FSprinkles. Broken clouds.13 mph64%29.74 "HgN/A
4:50 PM64 °FBroken clouds.16 mph60%29.74 "HgN/A
4:20 PM64 °FBroken clouds.16 mph60%29.74 "HgN/A
Weather by CustomWeather, © 2015

See weather overviewHow to use our weather pages